Flag for Slovenia Weather past 2 weeks in Ljubljana, Slovenia

Now
33 °F

Passing clouds.


Feels Like: 33 °F
Forecast: 20 / 43 °F
Wind: No wind

Location: Ljubljana / Bezigrad

Current Time: Jan 27, 2015 at 8:10:25 PM

Latest Report: Jan 27, 2015 at 7:00 PM


Visibility: 13 mi

Pressure: N/A

Humidity: 78%

Dew point: 27 °F

Location of LjubljanaLocation

Historic Weather in Ljubljana — Graph

°F

Ljubljana temperature yesterday

Maximum temperature yesterday: 40 °F (at 3:00 PM)
Minimum temperature yesterday: 28 °F (at 7:00 AM)
Average temperature yesterday: 33 °F

Past Weeks' High & Low Weather Summary

 TemperatureHumidityPressure
High55 °F (Jan 17, 3:00 PM)100% (Jan 15, 7:00 AM)30.40 "Hg (Jan 15, 7:00 AM)
Low28 °F (Jan 26, 7:00 AM)33% (Jan 18, 1:00 PM)29.84 "Hg (Jan 20, 4:00 PM)
Average40 °F81%30.04 "Hg
* Reported Jan 12 6:00 PM — Jan 27 6:00 PM, Ljubljana, Weather by CustomWeather, © 2014

Note: Actual official high and low records may vary slightly from our data, if they occured in-between our weather recording intervals... More about our weather records

Advertising

Ljubljana weather history for previous 24 hours

 ConditionsComfort  
Time TempWeatherWind HumidityBarometerVisibility
6:00 PM
Jan 27
34 °FPassing clouds.1 mph73%30.06 "Hg16 mi
5:00 PM35 °FPassing clouds.1 mph70%30.04 "Hg16 mi
4:00 PM36 °FScattered clouds.1 mph64%30.03 "Hg16 mi
1:00 PM33 °FOvercast.1 mph75%30.04 "Hg19 mi
12:00 PM33 °FOvercast.1 mph76%30.06 "Hg16 mi
11:00 AM32 °FOvercast.1 mph77%30.08 "Hg12 mi
10:00 AM31 °FPartly sunny.1 mph80%30.08 "Hg7 mi
9:00 AM29 °FOvercast.1 mph85%30.08 "Hg7 mi
8:00 AM29 °FOvercast.1 mph88%30.07 "Hg9 mi
7:00 AM29 °FOvercast.No wind90%30.08 "Hg9 mi
4:00 AM28 °FChilly.No wind91%30.12 "HgN/A
3:00 AM28 °FChilly.1 mph88%30.14 "HgN/A
2:00 AM29 °FChilly.1 mph86%30.15 "HgN/A
1:00 AM29 °FChilly.1 mph85%30.18 "HgN/A
12:00 AM31 °FChilly.1 mph83%30.19 "HgN/A
11:00 PM
Jan 26
30 °FChilly.No wind84%30.21 "HgN/A
9:00 PM30 °FPassing clouds.1 mph83%30.24 "Hg16 mi
8:00 PM32 °FPassing clouds.1 mph78%30.24 "Hg16 mi
Weather by CustomWeather, © 2014

See weather overviewHow to use our weather pages